Kemmerer, WY

3:00 PM MDT on May 23, 2018 (GMT -0600)
Kemmerer Municipal

Weather History for KEMM - August, 2013

Change the Weather History Date:

Monday, August 19, 2013

  Actual Average Record
Temperature  
Mean Temperature 72 °F -  
Max Temperature 87 °F 77 °F 87 °F (2013)
Min Temperature 56 °F 44 °F 31 °F (1954)
Cooling Degree Days 6    
Growing Degree Days 22 (Base 50)    
Moisture  
Dew Point 35 °F    
Average Humidity 30    
Maximum Humidity 52    
Minimum Humidity 12    
Precipitation  
Precipitation 0.00 in - - ()
Sea Level Pressure  
Sea Level Pressure 30.32 in    
Wind  
Wind Speed 8 mph (WNW)    
Max Wind Speed 23 mph    
Max Gust Speed 29 mph    
Visibility 10 miles    
Events      
Averages and records for this station are not official NWS values.
T = Trace of Precipitation, MM = Missing Value Source: NWS Daily Summary

Daily Weather History Graph

Daily Weather History Graph

Search for Another Location

Airport or City:

Astronomy

Aug. 19, 2013 Rise Set
Actual Time 6:34 AM MDT 8:15 PM MDT
Civil Twilight 6:05 AM MDT 8:45 PM MDT
Nautical Twilight 5:29 AM MDT 9:21 PM MDT
Astronomical Twilight 4:50 AM MDT 9:59 PM MDT
Moon 7:09 PM MDT (8/19) 4:57 AM MDT (8/19)
Length of Visible Light 14h 40m
Length of Day
13h 40m
Waxing Gibbous, 97% of the Moon is Illuminated
Aug 19
Waxing Gibbous
Aug 20
Full
Aug 28
Last Quarter
Sep 5
New
Sep 12
First Quarter

Hourly Weather History & Observations

Time (MDT) Temp. Dew Point Humidity Pressure Visibility Wind Dir Wind Speed Gust Speed Precip Events Conditions
12:15 AM 64.9 °F 38.3 °F 37% 30.33 in 10.0 mi NNW 5.8 mph - N/A   Clear
12:35 AM 64.4 °F 38.7 °F 39% 30.33 in 10.0 mi NW 5.8 mph - N/A   Clear
12:55 AM 63.1 °F 39.0 °F 41% 30.34 in 10.0 mi NW 4.6 mph - N/A   Clear
1:15 AM 63.1 °F 39.2 °F 41% 30.34 in 10.0 mi NNW 8.1 mph - N/A   Clear
1:35 AM 62.8 °F 39.2 °F 42% 30.34 in 10.0 mi NW 5.8 mph - N/A   Clear
1:55 AM 60.6 °F 39.4 °F 45% 30.34 in 10.0 mi NW 5.8 mph - N/A   Clear
2:15 AM 61.5 °F 39.6 °F 44% 30.32 in 10.0 mi NNW 9.2 mph - N/A   Clear
2:35 AM 60.3 °F 39.2 °F 46% 30.33 in 10.0 mi NNW 9.2 mph - N/A   Clear
2:55 AM 59.2 °F 39.2 °F 48% 30.33 in 10.0 mi NNW 8.1 mph - N/A   Clear
3:15 AM 59.5 °F 39.0 °F 47% 30.33 in 10.0 mi NNW 6.9 mph - N/A   Clear
3:35 AM 59.9 °F 39.0 °F 46% 30.33 in 10.0 mi North 9.2 mph - N/A   Clear
3:55 AM 59.9 °F 39.0 °F 46% 30.33 in 10.0 mi NNW 10.4 mph - N/A   Clear
4:15 AM 57.7 °F 38.8 °F 49% 30.33 in 10.0 mi NNW 9.2 mph - N/A   Clear
4:35 AM 58.3 °F 38.7 °F 48% 30.32 in 10.0 mi NNW 10.4 mph - N/A   Clear
4:55 AM 57.7 °F 38.5 °F 49% 30.32 in 10.0 mi NNW 9.2 mph - N/A   Clear
5:15 AM 58.3 °F 39.0 °F 49% 30.32 in 10.0 mi North 9.2 mph - N/A   Clear
5:35 AM 56.3 °F 38.8 °F 52% 30.33 in 10.0 mi NNW 11.5 mph - N/A   Clear
5:55 AM 56.3 °F 38.7 °F 52% 30.33 in 10.0 mi North 10.4 mph - N/A   Clear
6:15 AM 56.3 °F 38.3 °F 51% 30.34 in 10.0 mi NNW 10.4 mph - N/A   Clear
6:35 AM 57.0 °F 38.1 °F 49% 30.34 in 10.0 mi NNW 10.4 mph - N/A   Clear
6:55 AM 56.3 °F 38.3 °F 51% 30.35 in 10.0 mi NNW 8.1 mph - N/A   Clear
7:15 AM 57.2 °F 37.9 °F 49% 30.35 in 10.0 mi NNW 8.1 mph - N/A   Clear
7:35 AM 59.0 °F 37.0 °F 44% 30.35 in 10.0 mi NNW 9.2 mph - N/A   Clear
7:55 AM 61.0 °F 36.5 °F 40% 30.35 in 10.0 mi NNW 8.1 mph - N/A   Clear
8:15 AM 62.8 °F 35.1 °F 36% 30.36 in 10.0 mi NNW 6.9 mph - N/A   Clear
8:35 AM 63.7 °F 36.9 °F 37% 30.37 in 10.0 mi Calm Calm - N/A   Clear
8:55 AM 64.6 °F 37.6 °F 37% 30.37 in 10.0 mi Calm Calm - N/A   Clear
9:15 AM 66.4 °F 39.2 °F 37% 30.38 in 10.0 mi Calm Calm - N/A   Clear
9:35 AM 69.1 °F 38.8 °F 33% 30.37 in 10.0 mi Calm Calm - N/A   Clear
9:55 AM 72.5 °F 35.4 °F 26% 30.37 in 10.0 mi Calm Calm - N/A   Clear
10:15 AM 74.8 °F 33.6 °F 22% 30.37 in 10.0 mi Calm Calm - N/A   Clear
10:35 AM 77.4 °F 29.5 °F 17% 30.37 in 10.0 mi NW 12.7 mph 17.3 mph N/A   Clear
10:55 AM 79.9 °F 27.7 °F 15% 30.37 in 10.0 mi NNW 12.7 mph 17.3 mph N/A   Clear
11:15 AM 81.3 °F 28.0 °F 14% 30.36 in 10.0 mi NW 8.1 mph - N/A   Clear
11:35 AM 82.4 °F 29.3 °F 15% 30.36 in 10.0 mi WNW 6.9 mph - N/A   Clear
11:55 AM 82.4 °F 30.2 °F 15% 30.35 in 10.0 mi NNW 10.4 mph - N/A   Clear
12:15 PM 82.4 °F 30.2 °F 15% 30.35 in 10.0 mi WNW 5.8 mph - N/A   Clear
12:35 PM 84.2 °F 28.4 °F 13% 30.34 in 10.0 mi NNW 8.1 mph - N/A   Clear
12:55 PM 84.2 °F 28.4 °F 13% 30.34 in 10.0 mi West 10.4 mph 18.4 mph N/A   Clear
1:15 PM 84.2 °F 28.4 °F 13% 30.34 in 10.0 mi WNW 12.7 mph - N/A   Clear
1:35 PM 86.0 °F 28.4 °F 12% 30.33 in 10.0 mi WNW 10.4 mph 20.7 mph N/A   Scattered Clouds
1:55 PM 86.0 °F 28.4 °F 12% 30.32 in 10.0 mi West 16.1 mph - N/A   Clear
2:15 PM 86.0 °F 28.4 °F 12% 30.32 in 10.0 mi West 6.9 mph 17.3 mph N/A   Clear
2:35 PM 86.0 °F 28.4 °F 12% 30.32 in 10.0 mi West 12.7 mph 23.0 mph N/A   Scattered Clouds
2:55 PM 86.0 °F 30.2 °F 13% 30.31 in 10.0 mi WSW 11.5 mph 20.7 mph N/A   Scattered Clouds
3:15 PM 86.0 °F 30.2 °F 13% 30.30 in 10.0 mi West 9.2 mph 20.7 mph N/A   Scattered Clouds
3:35 PM 84.2 °F 28.4 °F 13% 30.29 in 10.0 mi West 8.1 mph - N/A   Scattered Clouds
3:55 PM 86.0 °F 28.4 °F 12% 30.28 in 10.0 mi WNW 8.1 mph 20.7 mph N/A   Scattered Clouds
4:15 PM 87.8 °F 30.2 °F 13% 30.27 in 10.0 mi NNW 6.9 mph - N/A   Scattered Clouds
4:35 PM 87.8 °F 30.2 °F 13% 30.27 in 10.0 mi West 8.1 mph 18.4 mph N/A   Mostly Cloudy
4:55 PM 86.0 °F 30.2 °F 13% 30.26 in 10.0 mi West 9.2 mph 20.7 mph N/A   Mostly Cloudy
5:15 PM 82.4 °F 30.2 °F 15% 30.26 in 10.0 mi WNW 15.0 mph 20.7 mph N/A   Scattered Clouds
5:35 PM 82.4 °F 30.2 °F 15% 30.26 in 10.0 mi NW 12.7 mph 17.3 mph N/A   Mostly Cloudy
5:55 PM 82.4 °F 30.2 °F 15% 30.27 in 10.0 mi West 9.2 mph - N/A   Mostly Cloudy
6:15 PM 80.6 °F 30.2 °F 16% 30.27 in 10.0 mi SSW 3.5 mph - N/A   Mostly Cloudy
6:35 PM 75.2 °F 37.4 °F 25% 30.28 in 10.0 mi SSW 23.0 mph 28.8 mph N/A   Overcast
6:55 PM 75.2 °F 35.6 °F 24% 30.27 in 10.0 mi SSW 13.8 mph 24.2 mph N/A   Overcast
7:15 PM 75.2 °F 35.6 °F 24% 30.27 in 10.0 mi South 15.0 mph 20.7 mph N/A   Scattered Clouds
7:35 PM 73.4 °F 35.6 °F 25% 30.28 in 10.0 mi South 13.8 mph - N/A   Clear
7:55 PM 73.4 °F 35.6 °F 25% 30.28 in 10.0 mi SSW 9.2 mph - N/A   Clear
8:15 PM 71.6 °F 37.4 °F 29% 30.29 in 10.0 mi WSW 10.4 mph - N/A   Scattered Clouds
8:35 PM 71.6 °F 37.4 °F 29% 30.29 in 10.0 mi SW 8.1 mph 17.3 mph N/A   Scattered Clouds
8:55 PM 69.8 °F 37.4 °F 31% 30.30 in 10.0 mi West 8.1 mph - N/A   Scattered Clouds
9:15 PM 68.0 °F 37.4 °F 33% 30.30 in 10.0 mi WSW 12.7 mph - N/A   Clear
9:35 PM 68.0 °F 37.4 °F 33% 30.30 in 10.0 mi WSW 15.0 mph - N/A   Clear
9:55 PM 66.2 °F 37.4 °F 35% 30.30 in 10.0 mi WSW 10.4 mph - N/A   Clear
10:15 PM 66.2 °F 37.4 °F 35% 30.29 in 10.0 mi West 9.2 mph - N/A   Clear
10:35 PM 68.0 °F 37.4 °F 33% 30.29 in 10.0 mi West 6.9 mph - N/A   Clear
10:55 PM 66.2 °F 37.4 °F 35% 30.29 in 10.0 mi NNW 6.9 mph - N/A   Clear
11:15 PM 68.0 °F 37.4 °F 33% 30.29 in 10.0 mi NW 6.9 mph - N/A   Clear
11:35 PM 66.2 °F 37.4 °F 35% 30.29 in 10.0 mi NNW 10.4 mph - N/A   Clear
11:55 PM 64.4 °F 37.4 °F 37% 30.29 in 10.0 mi NNW 9.2 mph - N/A   Clear